Content
SEND FEEDBACK

Daily
Averages
Monthly
Summary
United States of America

GLADY, WEST VIRGINIA


Home > North America > United States > West Virginia
Elevation: 284 feet     Latitude: 38 48N     Longitude: 079 43W

WEATHER
 
SELECT A DAY
Number of Records: 249,777;   Date Range: 1/1/95 - 8/30/14
 
SHARE

PRINT THIS DATA

[ ← Previous Day ]
WEATHER ALMANAC - JANUARY 23, 2013
[ Next Day → ]
[ °C ]   °F
Weather ElementAverageHighLow
Temperature14 °F19 °F (2:51 pm)7 °F (5:51 am)
Dewpoint2.7 °F14 °F (10:51 pm)-6 °F (3:51 pm)
Humidity62.8 %86 % (9:48 pm)33 % (3:51 pm)
Barometer30.20 in30.36 in (8:51 am)30.01 in (9:48 pm)
Wind Speed3.8 mph12.7 mph (12:51 pm)
Wind Gust19.6 mph (2:51 pm)
Weather ElementAverage
Visibility6.5 mi
Wind DirectionESE (116.9 °)

Weather ElementTotal
Precipitation0.10 in
Heating Degree Days52 (Base 65)
Averaged from 29 records on January 23, 2013
WEATHER CONDITIONS BREAKOUT
WIND DIRECTION BREAKOUT
WEATHER BY HOUR - JANUARY 23, 2013
[ °C ]   °F
Local TimeTemperatureDewpointHumidityBarometerVisibilityWind DirectionWind SpeedGust SpeedPrecipitationEventsConditions
1:51 AM9.0 °F-4.0 °F56 %30.32 in10.0 miVariable3.5 mphClear
2:51 AM8.1 °F-4.0 °F58 %30.33 in10.0 miWest (260°)4.6 mphClear
3:51 AM8.1 °F-4.0 °F58 %30.33 in10.0 miWSW (240°)8.1 mphClear
4:51 AM8.1 °F-4.0 °F58 %30.33 in10.0 miWest (260°)4.6 mphClear
5:51 AM7.0 °F-4.0 °F61 %30.33 in10.0 miWSW (250°)4.6 mphClear
6:51 AM7.0 °F-4.0 °F61 %30.35 in10.0 miWest (280°)4.6 mphClear
7:51 AM7.0 °F-4.0 °F61 %30.35 in10.0 miVariable3.5 mphClear
8:51 AM8.1 °F-2.9 °F61 %30.36 in10.0 miWNW (290°)5.8 mphOvercast
9:51 AM10.0 °F-2.0 °F58 %30.35 in10.0 miVariable3.5 mphMostly Cloudy
10:51 AM12.9 °F-0.9 °F54 %30.35 in10.0 miWest (260°)10.4 mphOvercast
11:51 AM14.0 °F-2.0 °F49 %30.32 in10.0 miWest (260°)8.1 mphOvercast
12:51 PM15.8 °F-2.2 °F45 %30.14 in10.0 miWest (270°)12.7 mphOvercast
1:51 PM17.1 °F-2.9 °F41 %30.25 in10.0 miWest (270°)8.1 mphOvercast
2:51 PM19.0 °F-5.1 °F34 %30.23 in10.0 miWSW (250°)12.7 mph19.6 mphOvercast
3:51 PM19.0 °F-6.0 °F33 %30.22 in10.0 miVariable6.9 mphOvercast
4:51 PM18.0 °F-6.0 °F35 %30.22 in10.0 miWest (260°)5.8 mph17.3 mphOvercast
5:51 PM18.0 °F1.9 °F50 %30.20 in8.0 miWSW (240°)3.5 mph0.00 inSnowLight Snow
6:51 PM17.1 °F8.1 °F68 %30.17 in4.0 miCalm0.01 inSnowLight Snow
7:21 PM15.8 °F8.6 °F73 %30.04 in2.5 miCalm0.00 inSnowLight Snow
7:51 PM16.0 °F10.0 °F77 %30.17 in1.8 miCalm0.01 inSnowLight Snow
8:01 PM15.8 °F10.4 °F79 %30.04 in2.0 miCalm0.00 inSnowLight Snow
8:20 PM15.8 °F10.4 °F79 %30.04 in1.8 miCalm0.00 inSnowLight Snow
8:51 PM15.8 °F10.4 °F79 %30.03 in1.5 miCalmSnowLight Snow
9:48 PM15.8 °F12.2 °F86 %30.01 in1.0 miCalm0.02 inSnowLight Snow
9:51 PM16.0 °F12.0 °F84 %30.14 in1.0 miCalm0.02 inSnowLight Snow
9:59 PM17.6 °F12.2 °F79 %30.01 in0.8 miCalm0.00 inSnowLight Snow
10:33 PM17.6 °F12.2 °F79 %30.01 in1.0 miCalm0.01 inSnowLight Snow
10:51 PM18.0 °F14.0 °F84 %30.12 in1.8 miCalm0.02 inSnowLight Snow
11:51 PM18.0 °F12.9 °F81 %30.09 in1.5 miCalm0.01 inSnowLight Snow
Hourly data recorded from KEKN, located miles away from Glady, West Virginia







STORIES FROM OUR PARTNERS